Flag for U.S.A. Weather past 2 weeks in Akron, Ohio, U.S.A.

38 °F

Passing clouds.

Feels Like: 33 °F
Forecast: 31 / 45 °F
Wind: 7 mph from Northeast

Location: Akron Fulton International Airport

Current Time: Nov 29, 2015 at 12:45:51 AM

Latest Report: Nov 28, 2015 at 11:54 PM

Visibility: 10 mi

Pressure: 30.26 "Hg

Humidity: 86%

Dew point: 34 °F

Location of AkronLocation

Historic Weather in Akron — Graph


Akron temperature yesterday

Maximum temperature yesterday: 44 °F (at 12:54 AM)
Minimum temperature yesterday: 39 °F (at 10:54 PM)
Average temperature yesterday: 42 °F

Past Weeks' High & Low Weather Summary

High71 °F (Nov 18, 4:54 PM)93% (Nov 27, 9:54 PM)30.57 "Hg (Nov 27, 9:54 PM)
Low21 °F (Nov 23, 6:54 AM)19% (Nov 20, 12:54 PM)29.68 "Hg (Nov 21, 5:54 PM)
Average46 °F58%30.22 "Hg
* Reported Nov 13 10:54 PM — Nov 28 10:54 PM, Akron, Weather by CustomWeather, © 2015

Note: Actual official high and low records may vary slightly from our data, if they occured in-between our weather recording intervals... More about our weather records


Akron weather history for previous 24 hours

Time TempWeatherWind HumidityBarometerVisibility
10:54 PM
Sat, Nov 28
39 °FPartly cloudy.7 mph86%30.28 "Hg10 mi
9:54 PM40 °FMostly cloudy.7 mph86%30.28 "Hg10 mi
9:03 PM40 °FMostly cloudy.6 mph86%30.26 "Hg10 mi
7:54 PM40 °FFog.7 mph93%30.28 "Hg5 mi
5:54 PM41 °FFog.8 mph93%30.27 "Hg5 mi
4:54 PM41 °FLow clouds.9 mph89%30.26 "Hg7 mi
3:54 PM42 °FLow clouds.9 mph85%30.25 "Hg10 mi
2:54 PM43 °FLow clouds.7 mph86%30.24 "Hg10 mi
1:54 PM43 °FLight rain. Low clouds.7 mph86%30.25 "Hg10 mi
1:04 PM43 °FLight rain. Overcast.5 mph86%30.25 "Hg10 mi
12:54 PM43 °FLight rain. Low clouds.5 mph86%30.26 "Hg10 mi
11:54 AM43 °FLight rain. Mostly cloudy.8 mph89%30.28 "Hg7 mi
10:54 AM43 °FLight rain. Fog.7 mph86%30.29 "Hg4 mi
9:54 AM43 °FLight rain. Fog.9 mph86%30.29 "Hg3 mi
8:54 AM43 °FLight rain. Fog.8 mph89%30.27 "Hg3 mi
7:54 AM43 °FLow clouds.6 mph89%30.27 "Hg10 mi
6:54 AM43 °FLow clouds.6 mph89%30.26 "Hg10 mi
5:54 AM43 °FLight rain. Fog.6 mph89%30.25 "Hg5 mi
4:54 AM43 °FLight rain. Fog.6 mph93%30.25 "Hg4 mi
3:54 AM43 °FLight rain. Fog.6 mph93%30.25 "Hg3 mi
2:54 AM44 °FLight rain. Fog.6 mph89%30.26 "Hg3 mi
1:54 AM44 °FLight rain. Fog.6 mph89%30.27 "Hg4 mi
12:54 AM44 °FLight rain. Fog.6 mph89%30.27 "Hg6 mi
Weather by CustomWeather, © 2015

See weather overviewHow to use our weather pages